Weather History for Sierra Vista, AZ

Change the Weather History Date:

Tuesday, November 20, 2012

  Actual Average Record
Temperature  
Mean Temperature 58 °F -  
Max Temperature 69 °F 65 °F 80 °F (1996)
Min Temperature 46 °F 43 °F 29 °F (1985)
Degree Days  
Heating Degree Days 8    
Growing Degree Days 8 (Base 50)    
Moisture  
Dew Point 36 °F    
Average Humidity 46    
Maximum Humidity 71    
Minimum Humidity 27    
Precipitation  
Precipitation 0.00 in - - ()
Sea Level Pressure  
Sea Level Pressure 30.10 in    
Wind  
Wind Speed 3 mph (ESE)    
Max Wind Speed 10 mph    
Max Gust Speed -    
Visibility 10 miles    
Events      
Averages and records for this station are not official NWS values.
T = Trace of Precipitation, MM = Missing Value Source: NWS Daily Summary

Daily Weather History Graph

Daily Weather History Graph

Search for Another Location

Airport:

Trip Planner

Search our weather history database for the weather conditions in past years. The results will help you decide how hot, cold, wet, or windy it might be!

Date:

Astronomy

Nov. 20, 2012 Rise Set
Actual Time 6:54 AM MST 5:19 PM MST
Civil Twilight 6:28 AM MST 5:45 PM MST
Nautical Twilight 5:58 AM MST 6:15 PM MST
Astronomical Twilight 5:29 AM MST 6:44 PM MST
Moon 12:43 PM MST No Moon Set
Length of Visible Light 11h 17m
Length of Day
10h 25m
First Quarter, 52% of the Moon is Illuminated
Nov 20
First Quarter
Nov 28
Full
Dec 6
Last Quarter
Dec 13
New
Dec 19
First Quarter

Hourly Weather History & Observations

Time (MST) Temp. Windchill Dew Point Humidity Pressure Visibility Wind Dir Wind Speed Gust Speed Precip Events Conditions
12:55 AM 51.8 °F - 35.6 °F 54% 30.16 in 10.0 mi Calm Calm - N/A   Clear
1:55 AM 46.4 °F - 37.4 °F 71% 30.17 in 10.0 mi Calm Calm - N/A   Clear
2:55 AM 46.4 °F - 35.6 °F 66% 30.15 in 10.0 mi Calm Calm - N/A   Clear
3:55 AM 48.2 °F - 35.6 °F 62% 30.13 in 10.0 mi Calm Calm - N/A   Clear
4:55 AM 48.2 °F - 35.6 °F 62% 30.13 in 10.0 mi SE 5.8 mph - N/A   Partly Cloudy
5:55 AM 46.4 °F 45.2 °F 35.6 °F 66% 30.15 in 10.0 mi East 3.5 mph - N/A   Partly Cloudy
6:55 AM 46.4 °F - 35.6 °F 66% 30.17 in 10.0 mi Variable 2.3 mph - N/A   Scattered Clouds
7:55 AM 51.8 °F - 37.4 °F 58% 30.18 in 10.0 mi Variable 1.2 mph - N/A   Mostly Cloudy
8:55 AM 55.4 °F - 37.4 °F 51% 30.18 in 10.0 mi East 3.5 mph - N/A   Mostly Cloudy
9:55 AM 59.0 °F - 37.4 °F 45% 30.17 in 10.0 mi Variable 3.5 mph - N/A   Mostly Cloudy
10:55 AM 62.6 °F - 37.4 °F 39% 30.15 in 10.0 mi Variable 6.9 mph - N/A   Mostly Cloudy
11:55 AM 66.2 °F - 35.6 °F 32% 30.11 in 10.0 mi East 8.1 mph - N/A   Mostly Cloudy
12:55 PM 68.0 °F - 35.6 °F 30% 30.06 in 10.0 mi East 6.9 mph - N/A   Mostly Cloudy
1:55 PM 68.0 °F - 33.8 °F 28% 30.05 in 10.0 mi SSE 9.2 mph - N/A   Mostly Cloudy
2:55 PM 69.8 °F - 33.8 °F 27% 30.04 in 10.0 mi SSE 10.4 mph - N/A   Mostly Cloudy
3:55 PM 69.8 °F - 33.8 °F 27% 30.03 in 10.0 mi Variable 4.6 mph - N/A   Mostly Cloudy
4:55 PM 66.2 °F - 33.8 °F 30% 30.04 in 10.0 mi South 4.6 mph - N/A   Mostly Cloudy
5:55 PM 62.6 °F - 35.6 °F 37% 30.06 in 10.0 mi South 3.5 mph - N/A   Mostly Cloudy
6:55 PM 60.8 °F - 35.6 °F 39% 30.07 in 10.0 mi SE 4.6 mph - N/A   Mostly Cloudy
7:55 PM 59.0 °F - 35.6 °F 42% 30.07 in 10.0 mi North 3.5 mph - N/A   Overcast
8:55 PM 57.2 °F - 37.4 °F 48% 30.07 in 10.0 mi Calm Calm - N/A   Mostly Cloudy
9:55 PM 57.2 °F - 37.4 °F 48% 30.06 in 10.0 mi Calm Calm - N/A   Overcast
10:55 PM 59.0 °F - 35.6 °F 42% 30.04 in 10.0 mi Calm Calm - N/A   Overcast
11:55 PM 57.2 °F - 35.6 °F 44% 30.04 in 10.0 mi Calm Calm - N/A   Overcast